Theta_e
326 325 324 323 322 322 321 319 314 309 313 317 318 321 322 322 321 318 320 316 320 322 324 325 324 324 324 323 322 321 320 320 318 318 317 317 321 324
324 324 324 323 322 321 321 320 319 316 313 319 319 317 323 321 319 319 319 313 316 320 320 319 320 320 320 319 319 319 318 317 316 316 317 317 319 322
320 323 322 322 321 321 320 320 319 319 314 317 319 318 318 318 317 318 317 317 315 316 319 318 318 317 317 316 316 316 315 314 314 314 315 316 317 319
320 320 320 321 320 320 320 319 319 320 318 315 316 314 315 317 317 314 316 317 317 314 316 317 316 317 315 314 313 313 313 313 312 312 312 314 315 316
320 319 318 318 317 319 319 319 320 320 320 318 316 317 315 313 313 313 314 315 314 312 315 315 316 315 313 312 311 311 310 310 310 310 310 311 313 314
319 320 319 318 317 317 318 318 318 318 319 318 317 314 311 309 313 310 308 312 312 313 312 312 313 313 313 312 310 308 308 308 309 310 309 309 309 311
316 320 320 317 312 316 319 318 318 317 317 316 315 316 308 303 308 310 310 310 310 312 308 306 307 308 308 310 307 306 306 307 308 308 309 308 308 309
314 316 317 310 312 312 313 314 318 317 316 315 315 314 314 313 312 310 309 307 306 309 308 305 304 304 305 305 307 306 306 306 307 307 307 307 308 308
313 313 314 316 310 316 313 312 312 312 314 318 316 316 316 316 314 309 309 309 310 304 307 304 304 301 305 304 304 305 305 305 305 305 306 306 307 307
302 304 303 302 302 305 316 316 316 317 315 314 317 319 319 320 316 313 311 311 311 300 307 304 300 301 304 303 304 304 305 304 304 304 305 305 306 306
298 299 299 299 301 303 303 302 302 301 303 302 303 304 305 306 307 309 306 302 304 294 297 304 297 298 297 299 300 303 303 304 304 304 305 305 305 305
296 296 298 299 300 300 298 298 296 296 298 299 300 301 302 303 303 304 300 295 300 293 292 296 291 289 288 290 296 299 301 303 303 304 304 305 304 303
292 293 294 297 296 297 297 295 295 296 295 295 294 295 296 296 296 296 296 295 294 296 296 294 288 288 288 286 289 294 298 299 300 301 304 304 303 303
290 291 293 295 294 295 294 295 295 294 292 290 289 289 290 291 292 293 292 291 292 289 292 293 287 289 287 286 287 287 292 295 298 298 300 303 303 302
291 291 291 291 290 289 290 290 289 288 287 287 287 287 288 289 288 289 288 287 286 288 288 288 289 290 289 290 287 285 287 290 294 296 298 298 299 299
289 287 287 287 287 286 285 285 284 284 283 283 283 284 285 286 287 288 286 287 286 287 287 286 286 287 289 291 291 288 288 286 291 293 294 296 297 298
285 283 282 281 281 281 282 282 282 283 282 283 282 282 283 284 284 286 286 286 285 285 286 287 285 286 287 287 286 288 287 286 288 290 290 290 292 295
282 280 280 280 280 280 280 281 281 282 282 282 282 283 282 282 283 285 285 285 285 285 286 287 283 282 283 284 287 286 285 286 286 286 289 288 286 288
280 279 279 279 279 279 280 280 280 281 282 282 282 282 282 283 283 282 283 284 284 285 285 286 284 282 281 280 282 286 285 284 284 284 285 285 285 285
279 278 278 278 279 279 279 279 280 281 280 281 282 282 283 282 282 282 282 282 283 284 284 286 283 283 282 282 279 281 285 284 284 283 282 283 285 288
278 278 278 278 279 279 279 279 279 279 281 280 281 281 282 282 282 282 282 284 285 284 283 284 284 288 285 282 279 279 281 285 284 282 282 282 280 280
277 277 278 278 278 278 278 278 278 278 279 280 280 281 282 282 281 282 282 282 283 283 284 285 283 284 282 282 279 277 279 283 285 286 285 284 281 277
277 277 278 278 278 278 277 277 277 278 279 280 280 281 281 281 282 283 283 283 283 283 284 282 281 282 282 282 279 278 278 280 280 280 282 287 287 286
Wind_Speed
12 13 11 9 8 8 6 7 8 9 10 4 4 4 4 5 6 7 6 11 13 14 15 13 11 12 14 13 14 15 13 13 12 13 12 12 13 13
9 11 12 8 7 8 8 10 9 11 12 8 7 6 8 6 8 7 7 8 13 16 17 13 13 13 14 14 14 14 14 13 13 14 14 14 13 12
6 11 14 12 9 10 10 10 10 11 12 10 5 5 5 7 5 5 7 7 5 16 18 16 15 14 14 15 14 14 15 15 14 15 15 15 13 11
13 11 12 7 10 7 6 11 11 11 10 14 6 3 4 7 5 7 7 5 8 12 17 15 14 17 15 15 15 16 15 15 17 16 16 16 14 12
14 15 15 15 12 10 10 10 8 8 9 9 7 5 4 3 4 5 6 8 5 8 16 20 19 19 17 17 17 17 17 17 16 15 15 16 16 12
9 14 15 16 16 14 12 13 12 11 11 12 11 7 5 4 6 6 6 7 7 8 11 13 17 19 19 20 20 19 17 16 17 17 16 15 14 14
8 11 14 15 17 16 10 12 12 11 10 10 11 9 5 3 9 6 9 8 11 9 8 8 9 10 12 20 18 20 20 19 19 20 19 18 17 16
9 10 8 13 16 21 19 19 17 13 13 11 9 9 12 11 9 11 9 8 10 8 9 10 9 12 11 12 23 24 24 24 23 21 20 20 18 16
4 4 5 3 7 12 19 21 19 19 21 15 14 12 12 10 12 11 14 12 14 4 10 10 9 14 11 12 24 28 28 27 26 23 21 20 17 16
8 7 9 7 8 5 9 12 17 15 10 7 11 12 11 11 12 16 16 17 14 1 10 11 6 10 10 10 22 28 29 27 27 25 23 21 18 18
11 11 8 8 13 11 6 8 8 7 6 9 8 9 9 8 5 3 5 5 8 5 7 8 6 6 6 10 11 26 28 27 27 26 25 23 20 19
8 9 18 10 16 15 9 7 7 7 7 8 8 8 9 9 11 5 3 3 7 4 4 7 3 3 4 4 10 10 14 28 29 27 26 25 22 9
7 6 6 16 17 15 15 9 7 4 7 5 5 5 5 6 5 4 3 4 5 7 1 3 2 1 3 1 3 8 11 12 15 17 27 27 26 17
7 5 8 14 17 19 12 16 16 11 6 6 6 6 7 6 7 7 6 4 4 7 6 6 4 2 3 2 5 2 7 9 11 12 14 19 25 24
8 13 16 16 15 12 19 19 14 7 6 6 6 5 5 6 7 7 4 5 6 6 5 5 8 10 7 10 4 4 5 8 10 10 11 12 13 12
10 10 12 13 16 13 11 11 8 7 6 5 6 6 5 6 6 4 7 9 10 10 4 5 7 9 11 12 12 8 8 7 10 10 10 10 9 10
7 6 6 7 8 8 7 8 7 8 8 7 7 8 8 8 9 9 6 7 8 9 9 5 4 7 8 10 8 8 9 8 9 10 10 9 7 9
6 7 8 8 8 7 7 6 7 9 7 6 6 8 8 9 11 9 8 10 10 9 9 8 3 3 3 4 8 8 8 9 7 9 7 9 7 4
7 7 6 6 6 7 7 8 10 10 10 7 7 8 9 9 13 10 10 10 10 11 11 9 7 7 10 12 2 6 6 6 8 7 6 3 7 5
7 6 6 7 8 9 10 10 9 9 9 8 9 9 9 9 10 10 9 10 10 10 10 9 7 10 11 11 3 2 3 5 6 7 5 5 6 14
6 7 7 8 7 7 8 7 9 8 10 9 8 9 10 9 10 10 10 17 17 10 11 12 10 18 4 3 2 1 2 9 5 5 7 6 4 3
6 6 6 6 7 7 7 7 7 7 8 9 9 10 10 9 10 11 10 10 10 9 11 10 3 4 5 7 4 4 3 5 9 12 8 5 3 4
6 6 5 5 5 5 6 7 7 8 8 9 10 10 10 10 10 9 10 9 9 9 9 5 2 3 4 1 7 6 8 11 8 9 7 11 8 9
Wind_Direction
219 211 216 214 209 212 216 226 219 235 237 232 231 224 196 177 190 179 193 196 208 217 226 228 231 195 189 209 216 233 235 247 249 254 256 259 263 257
206 211 223 214 209 214 213 219 220 232 243 214 220 217 210 203 180 178 201 178 207 217 225 222 222 202 197 204 207 224 229 236 242 250 256 259 256 253
194 210 222 223 219 216 210 210 218 217 237 237 226 201 178 200 185 186 193 194 206 220 219 216 218 207 205 206 212 221 225 230 236 244 249 255 252 254
229 222 226 217 211 220 207 220 218 221 229 236 193 191 192 226 198 195 215 185 207 207 215 220 219 228 222 218 217 220 221 225 229 235 244 248 244 241
216 225 226 221 214 212 207 219 216 209 212 226 234 214 193 169 185 208 204 218 209 219 212 220 215 221 221 225 225 226 222 221 225 227 231 243 245 235
210 211 213 210 212 209 214 221 228 230 228 230 230 209 201 185 184 192 199 212 222 221 222 214 209 218 221 225 225 225 229 223 225 228 223 232 238 240
226 212 213 214 211 209 206 217 218 225 229 231 230 224 179 159 199 203 218 201 220 214 212 207 206 207 216 223 229 215 217 222 223 227 227 228 231 227
244 241 223 211 216 210 208 210 209 214 231 224 229 224 219 211 208 209 220 216 237 203 210 223 200 222 223 216 217 217 209 214 221 223 226 229 228 225
233 287 264 286 235 221 224 222 218 212 218 220 233 232 234 221 216 209 211 217 234 187 195 235 199 229 226 227 217 212 206 207 213 217 219 220 220 227
67 69 71 48 11 316 238 230 233 227 246 267 274 266 258 246 220 215 215 224 237 235 190 233 185 225 220 224 221 217 212 207 208 207 209 211 210 208
70 62 66 53 27 26 70 88 67 39 19 14 27 8 10 0 11 320 260 230 239 223 209 236 201 224 219 217 213 218 217 211 207 205 206 205 202 200
72 64 54 59 56 49 60 56 63 21 4 359 12 6 13 10 16 12 343 262 272 314 216 228 166 154 271 220 213 211 209 210 205 203 204 201 197 195
68 62 55 57 58 54 55 51 53 26 20 18 6 360 1 8 5 7 4 334 304 287 294 224 302 200 260 261 257 214 209 208 204 205 205 197 190 183
80 65 58 55 55 49 44 41 38 34 25 24 17 6 359 354 343 331 315 276 239 253 284 246 269 256 244 253 258 226 215 215 209 204 192 195 191 179
62 64 62 55 52 49 43 40 35 30 22 21 11 357 346 334 320 323 301 277 270 268 257 225 237 257 246 255 251 205 180 213 208 200 194 185 186 186
56 55 55 54 51 43 36 31 25 22 20 8 347 330 321 325 317 315 319 320 314 312 238 233 238 253 257 248 246 233 203 195 198 205 189 186 177 185
60 53 45 37 32 28 27 22 22 21 14 359 346 335 328 320 318 318 293 287 279 294 295 268 242 242 238 251 239 237 215 197 199 197 175 173 180 177
43 44 44 39 34 27 23 19 20 15 5 351 347 345 335 326 321 315 305 298 288 282 283 286 236 252 268 246 238 221 199 207 184 175 186 176 162 159
52 47 40 33 28 24 18 15 10 5 347 341 330 334 327 320 319 306 301 295 290 287 284 282 253 243 260 256 254 273 196 171 164 152 148 140 165 153
48 41 32 25 23 17 13 5 351 345 343 334 330 318 307 300 298 293 290 286 287 284 283 280 251 247 242 256 219 282 228 153 178 135 117 89 77 114
30 26 20 19 15 9 1 352 342 333 327 316 310 309 307 300 297 293 288 291 290 288 286 289 270 249 240 122 152 125 9 104 96 114 117 108 106 114
24 15 12 6 4 0 349 336 321 314 311 302 305 304 303 300 295 295 291 290 289 287 287 287 233 190 198 228 208 139 123 118 114 103 84 56 108 146
14 9 356 346 346 346 334 318 311 304 297 297 306 305 307 301 300 292 288 283 283 283 286 280 214 198 229 200 151 147 125 116 113 105 81 99 147 197